TimeEDT,TemperatureF,Dew PointF,Humidity,Sea Level PressureIn,VisibilityMPH,Wind Direction,Wind SpeedMPH,Gust SpeedMPH,PrecipitationIn,Events,Conditions,WindDirDegrees,DateUTC
12:53 AM,81.0,72.0,74,30.02,10.0,ESE,6.9,-,N/A,,Unknown,110,2013-09-11 04:53:00
1:53 AM,81.0,73.9,79,30.01,10.0,East,8.1,-,N/A,,Unknown,100,2013-09-11 05:53:00
2:53 AM,82.0,75.0,79,29.99,10.0,East,8.1,-,N/A,,Unknown,100,2013-09-11 06:53:00
3:53 AM,82.0,73.9,76,29.98,10.0,ESE,10.4,-,N/A,,Unknown,110,2013-09-11 07:53:00
4:53 AM,82.0,73.0,74,29.99,10.0,East,8.1,-,N/A,,Unknown,100,2013-09-11 08:53:00
5:53 AM,81.0,73.9,79,30.00,4.0,ESE,11.5,18.4,N/A,,Haze,120,2013-09-11 09:53:00
6:53 AM,81.0,73.9,79,30.01,10.0,ESE,8.1,-,0.01,,Unknown,110,2013-09-11 10:53:00
7:53 AM,82.9,73.9,74,30.02,10.0,East,9.2,-,N/A,,Scattered Clouds,100,2013-09-11 11:53:00
8:53 AM,82.9,73.9,74,30.03,10.0,ESE,6.9,-,N/A,,Scattered Clouds,120,2013-09-11 12:53:00
9:01 AM,80.6,73.4,79,30.04,1.5,SE,16.1,24.2,0.09,,Haze,140,2013-09-11 13:01:00
9:09 AM,77.0,71.6,83,30.03,7.0,NE,6.9,-,0.32,,Scattered Clouds,40,2013-09-11 13:09:00
9:53 AM,79.0,73.9,84,30.05,10.0,NE,6.9,-,0.32,,Scattered Clouds,40,2013-09-11 13:53:00
10:53 AM,84.9,75.0,72,30.05,10.0,East,10.4,-,0.00,,Scattered Clouds,90,2013-09-11 14:53:00
11:53 AM,84.0,75.0,74,30.06,10.0,ENE,18.4,23.0,N/A,,Scattered Clouds,60,2013-09-11 15:53:00
12:53 PM,82.0,73.9,76,30.06,10.0,ENE,12.7,-,N/A,,Mostly Cloudy,60,2013-09-11 16:53:00
1:53 PM,82.9,73.0,72,30.02,10.0,ENE,10.4,-,N/A,,Mostly Cloudy,60,2013-09-11 17:53:00
2:53 PM,82.9,73.0,72,30.03,10.0,East,10.4,-,N/A,,Unknown,90,2013-09-11 18:53:00
3:53 PM,-9999,-9999,N/A,30.02,-9999.0,North,-9999.0,-,N/A,,Unknown,0,2013-09-11 19:53:00
4:53 PM,82.0,72.0,71,30.00,10.0,East,4.6,-,N/A,,Mostly Cloudy,90,2013-09-11 20:53:00
5:53 PM,82.0,72.0,71,30.00,10.0,East,6.9,-,N/A,,Mostly Cloudy,90,2013-09-11 21:53:00
6:53 PM,81.0,73.0,77,30.01,10.0,East,5.8,-,N/A,,Unknown,80,2013-09-11 22:53:00
7:53 PM,82.0,73.0,74,30.01,10.0,East,6.9,-,N/A,,Unknown,90,2013-09-11 23:53:00
8:53 PM,82.0,73.9,76,30.01,10.0,Calm,Calm,-,0.00,Rain,Light Rain,0,2013-09-12 00:53:00
9:28 PM,82.4,73.4,74,30.02,10.0,ESE,3.5,-,0.00,,Mostly Cloudy,110,2013-09-12 01:28:00
9:40 PM,82.4,73.4,74,30.02,10.0,East,3.5,-,0.00,,Unknown,90,2013-09-12 01:40:00
9:53 PM,82.0,73.9,76,30.03,10.0,Calm,Calm,-,0.00,,Unknown,0,2013-09-12 01:53:00
10:53 PM,-9999,-9999,N/A,30.04,10.0,East,5.8,-,N/A,,Unknown,90,2013-09-12 02:53:00
11:53 PM,80.1,73.9,81,30.02,10.0,ENE,4.6,-,N/A,,Unknown,70,2013-09-12 03:53:00